﻿_id,日時,平均風速(m/s),平均風向,最大瞬間風速(m/s),最大風速時風向,気温(℃),湿度(%),10分間移動積算雨量(mm),1時間移動積算雨量(mm),日雨量(mm),累計雨量(mm)
1,2023-10-09T00:00:00,1.8,東,3.5,東南東,15,96.8,0,1,6,6
2,2023-10-09T00:01:00,1.9,東,3.5,東南東,14.9,96.9,0.5,1.5,0.5,6.5
3,2023-10-09T00:02:00,1.8,東,3.1,東,14.9,96.8,0.5,1.5,0.5,6.5
4,2023-10-09T00:03:00,1.8,東,3,東北東,15,96.9,0.5,1.5,0.5,6.5
5,2023-10-09T00:04:00,1.9,東,3.3,東,14.9,96.8,0.5,1.5,0.5,6.5
6,2023-10-09T00:05:00,1.9,東,3.3,東,14.9,96.8,0.5,1.5,0.5,6.5
7,2023-10-09T00:06:00,2,東,3.3,東,14.9,96.8,0.5,1.5,0.5,6.5
8,2023-10-09T00:07:00,2,東,3.3,東,14.9,96.9,0.5,1.5,0.5,6.5
9,2023-10-09T00:08:00,2,東,3.3,東,14.9,96.8,0.5,1.5,0.5,6.5
10,2023-10-09T00:09:00,2,東,3.3,東,14.9,96.8,0.5,1,0.5,6.5
11,2023-10-09T00:10:00,2,東,3.3,東,14.9,96.9,0.5,1,0.5,6.5
12,2023-10-09T00:11:00,1.9,東,3.3,東,14.9,96.9,0,1,0.5,6.5
13,2023-10-09T00:12:00,1.9,東,3.3,東,14.9,96.9,0,1,0.5,6.5
14,2023-10-09T00:13:00,1.9,東,3.3,東,14.9,96.9,0,1,0.5,6.5
15,2023-10-09T00:14:00,1.7,東,3.1,東南東,14.9,96.8,0,1,0.5,6.5
16,2023-10-09T00:15:00,1.7,東,3.1,東南東,14.9,96.9,0,1,0.5,6.5
17,2023-10-09T00:16:00,1.7,東,3.1,東南東,14.9,96.8,0,1,0.5,6.5
18,2023-10-09T00:17:00,1.6,東,3.1,東南東,14.9,96.8,0,1,0.5,6.5
19,2023-10-09T00:18:00,1.5,東,3.1,東南東,14.9,96.8,0,1,0.5,6.5
20,2023-10-09T00:19:00,1.4,東,3.1,東南東,14.9,96.9,0,1,0.5,6.5
21,2023-10-09T00:20:00,1.4,東,3.1,東南東,14.9,96.9,0,1,0.5,6.5
22,2023-10-09T00:21:00,1.4,東,3.1,東南東,14.9,96.8,0,1,0.5,6.5
23,2023-10-09T00:22:00,1.3,東,2.5,東,14.9,96.9,0,1,0.5,6.5
24,2023-10-09T00:23:00,1.3,東,2.5,東,15,96.9,0,1,0.5,6.5
25,2023-10-09T00:24:00,1.2,東,2.5,東,15,96.9,0,1,0.5,6.5
26,2023-10-09T00:25:00,1.2,東,2.5,東,15,97,0,1,0.5,6.5
27,2023-10-09T00:26:00,1.2,東,2.2,東北東,15,96.9,0,1,0.5,6.5
28,2023-10-09T00:27:00,1.2,東,2.2,東北東,15,96.9,0,1,0.5,6.5
29,2023-10-09T00:28:00,1.2,東,2.2,東北東,14.9,96.9,0,1,0.5,6.5
30,2023-10-09T00:29:00,1.2,東,2.1,東,15,96.8,0,1,0.5,6.5
31,2023-10-09T00:30:00,1.2,東南東,2.1,南東,14.9,96.8,0,1,0.5,6.5
32,2023-10-09T00:31:00,1.3,東南東,2.4,東,14.9,96.8,0,1,0.5,6.5
33,2023-10-09T00:32:00,1.4,東南東,2.5,東南東,14.9,96.8,0,1,0.5,6.5
34,2023-10-09T00:33:00,1.5,東南東,2.5,東南東,14.9,96.8,0,1,0.5,6.5
35,2023-10-09T00:34:00,1.5,東南東,2.5,東南東,15,96.8,0,1,0.5,6.5
36,2023-10-09T00:35:00,1.6,東南東,2.5,東南東,14.9,96.8,0.5,1.5,1,7
37,2023-10-09T00:36:00,1.6,東南東,2.5,東南東,15,96.9,0.5,1.5,1,7
38,2023-10-09T00:37:00,1.6,東,2.5,東南東,14.9,96.9,0.5,1.5,1,7
39,2023-10-09T00:38:00,1.5,東,2.5,東南東,15,96.9,0.5,1.5,1,7
40,2023-10-09T00:39:00,1.5,東,2.5,東南東,14.9,96.9,0.5,1.5,1,7
41,2023-10-09T00:40:00,1.4,東,2.5,東南東,14.9,96.8,0.5,1.5,1,7
42,2023-10-09T00:41:00,1.3,東,2.5,東南東,14.9,96.8,0.5,1.5,1,7
43,2023-10-09T00:42:00,1.3,東,2.2,東,14.9,96.9,0.5,1.5,1,7
44,2023-10-09T00:43:00,1.3,東,2.2,東,14.9,96.8,0.5,1.5,1,7
45,2023-10-09T00:44:00,1.2,東,2.1,東,14.9,96.8,0.5,1.5,1,7
46,2023-10-09T00:45:00,1.2,東,2.1,東,14.9,96.8,0,1.5,1,7
47,2023-10-09T00:46:00,1.2,東,2.2,東南東,14.9,96.9,0,1.5,1,7
48,2023-10-09T00:47:00,1.3,東,2.2,東南東,14.9,96.9,0,1.5,1,7
49,2023-10-09T00:48:00,1.3,東,2.2,東南東,14.9,96.9,0,1.5,1,7
50,2023-10-09T00:49:00,1.3,東,2.2,東南東,15,96.9,0,1,1,7
51,2023-10-09T00:50:00,1.4,東南東,2.2,東南東,15,96.9,0,1,1,7
52,2023-10-09T00:51:00,1.4,東南東,2.2,東南東,15,97,0,1,1,7
53,2023-10-09T00:52:00,1.4,東南東,2.2,東南東,14.9,96.8,0,1,1,7
54,2023-10-09T00:53:00,1.4,東南東,2.2,東南東,14.9,96.8,0,1,1,7
55,2023-10-09T00:54:00,1.4,東南東,2.2,東南東,15,96.9,0,1,1,7
56,2023-10-09T00:55:00,1.4,東南東,2.2,東南東,14.9,96.9,0,1,1,7
57,2023-10-09T00:56:00,1.3,東南東,2.2,東南東,15,96.9,0,1,1,7
58,2023-10-09T00:57:00,1.2,東南東,2.2,東南東,14.9,96.9,0,1,1,7
59,2023-10-09T00:58:00,1.2,東南東,2.2,東南東,14.9,96.8,0,1,1,7
60,2023-10-09T00:59:00,1.2,東南東,2.2,東南東,14.9,96.8,0,1,1,7
61,2023-10-09T01:00:00,1.2,東南東,2.2,東南東,14.9,96.8,0,1,1,7
62,2023-10-09T01:01:00,1.2,東,2.1,東南東,14.9,96.9,0,0.5,1,7
63,2023-10-09T01:02:00,1.2,東,2.1,東南東,14.9,96.8,0,0.5,1,7
64,2023-10-09T01:03:00,1.2,東,2.1,東南東,14.9,96.8,0,0.5,1,7
65,2023-10-09T01:04:00,1.2,東,2.1,東南東,14.9,96.9,0,0.5,1,7
66,2023-10-09T01:05:00,1.1,東,2.1,東南東,14.9,97,0.5,1,1.5,7.5
67,2023-10-09T01:06:00,1.1,東,2.1,東南東,14.9,96.9,0.5,1,1.5,7.5
68,2023-10-09T01:07:00,1.1,東,2.1,東南東,14.9,97,0.5,1,1.5,7.5
69,2023-10-09T01:08:00,1.1,東,2.1,東南東,14.9,96.9,0.5,1,1.5,7.5
70,2023-10-09T01:09:00,1.1,東,2.1,東南東,14.9,96.9,0.5,1,1.5,7.5
71,2023-10-09T01:10:00,1.1,東,2,東,14.9,96.8,0.5,1,1.5,7.5
72,2023-10-09T01:11:00,1,東,2,東,14.9,96.9,0.5,1,1.5,7.5
73,2023-10-09T01:12:00,1,東,1.8,東,14.9,96.9,0.5,1,1.5,7.5
74,2023-10-09T01:13:00,1,東,1.8,東,14.9,96.9,0.5,1,1.5,7.5
75,2023-10-09T01:14:00,1.1,東,2.2,東,14.9,96.9,0.5,1,1.5,7.5
76,2023-10-09T01:15:00,1.2,東,2.4,東,14.9,96.8,0,1,1.5,7.5
77,2023-10-09T01:16:00,1.2,東,2.4,東,14.9,96.9,0,1,1.5,7.5
78,2023-10-09T01:17:00,1.3,東,2.4,東,14.9,96.9,0,1,1.5,7.5
79,2023-10-09T01:18:00,1.3,東,2.4,東,14.9,96.9,0,1,1.5,7.5
80,2023-10-09T01:19:00,1.4,東,2.4,東,14.9,96.9,0,1,1.5,7.5
81,2023-10-09T01:20:00,1.5,東,2.4,東,14.9,96.9,0,1,1.5,7.5
82,2023-10-09T01:21:00,1.4,東,2.4,東,14.9,96.9,0,1,1.5,7.5
83,2023-10-09T01:22:00,1.4,東,2.4,東,14.9,97,0,1,1.5,7.5
84,2023-10-09T01:23:00,1.4,東,2.4,東,14.9,97,0,1,1.5,7.5
85,2023-10-09T01:24:00,1.4,東,2.4,東,14.9,96.9,0,1,1.5,7.5
86,2023-10-09T01:25:00,1.3,東,2.4,東,14.9,97,0,1,1.5,7.5
87,2023-10-09T01:26:00,1.2,東,2.4,東,14.9,96.9,0,1,1.5,7.5
88,2023-10-09T01:27:00,1.1,東,2.2,東,14.9,97,0,1,1.5,7.5
89,2023-10-09T01:28:00,1,東,2,東,14.9,97,0,1,1.5,7.5
90,2023-10-09T01:29:00,0.9,東北東,1.8,東,14.9,97,0,1,1.5,7.5
91,2023-10-09T01:30:00,0.8,東北東,1.4,東北東,14.9,97,0,1,1.5,7.5
92,2023-10-09T01:31:00,0.8,東北東,1.4,東北東,14.9,96.9,0.5,1.5,2,8
93,2023-10-09T01:32:00,0.8,東北東,1.4,東北東,14.9,96.9,0.5,1.5,2,8
94,2023-10-09T01:33:00,0.7,東北東,1.4,東北東,14.9,97,0.5,1.5,2,8
95,2023-10-09T01:34:00,0.7,東北東,1.4,東北東,14.9,97,0.5,1.5,2,8
96,2023-10-09T01:35:00,0.8,東北東,1.6,東,14.9,96.9,0.5,1,2,8
97,2023-10-09T01:36:00,0.9,東北東,1.8,東,14.9,96.9,0.5,1,2,8
98,2023-10-09T01:37:00,0.9,東北東,1.8,東,14.9,97,0.5,1,2,8
99,2023-10-09T01:38:00,0.9,東北東,1.8,東,14.9,97,0.5,1,2,8
100,2023-10-09T01:39:00,0.9,東,1.8,東,14.8,96.9,0.5,1,2,8
101,2023-10-09T01:40:00,0.9,東,1.8,東,14.8,96.9,0.5,1,2,8
102,2023-10-09T01:41:00,0.8,東,1.8,東,14.9,97,0,1,2,8
103,2023-10-09T01:42:00,0.9,東,1.8,東,14.8,97,0,1,2,8
104,2023-10-09T01:43:00,0.9,東,1.8,東,14.9,96.9,0,1,2,8
105,2023-10-09T01:44:00,0.9,東,1.8,東,14.8,97,0,1,2,8
106,2023-10-09T01:45:00,0.9,東,1.8,東,14.8,96.9,0,1,2,8
107,2023-10-09T01:46:00,0.8,東,1.6,東,14.8,97,0,1,2,8
108,2023-10-09T01:47:00,0.8,東,1.6,東,14.8,97,0,1,2,8
109,2023-10-09T01:48:00,0.9,東,1.6,東,14.8,96.9,0,1,2,8
110,2023-10-09T01:49:00,0.9,東,1.6,東,14.8,97,0,1,2,8
111,2023-10-09T01:50:00,0.9,東,1.6,東,14.8,97,0,1,2,8
112,2023-10-09T01:51:00,1,東,1.8,東南東,14.8,97,0,1,2,8
113,2023-10-09T01:52:00,1.1,東,2.2,東南東,14.8,97,0,1,2,8
114,2023-10-09T01:53:00,1.1,東,2.2,東南東,14.8,97,0,1,2,8
115,2023-10-09T01:54:00,1.2,東,2.2,東南東,14.8,97,0,1,2,8
116,2023-10-09T01:55:00,1.2,東,2.2,東南東,14.8,97,0,1,2,8
117,2023-10-09T01:56:00,1.2,東,2.2,東南東,14.8,97,0,1,2,8
118,2023-10-09T01:57:00,1.2,東南東,2.2,東南東,14.8,96.9,0,1,2,8
119,2023-10-09T01:58:00,1.2,東南東,2.2,東南東,14.8,97,0,1,2,8
120,2023-10-09T01:59:00,1.2,東南東,2.2,東南東,14.9,97.1,0,1,2,8
121,2023-10-09T02:00:00,1.2,東南東,2.2,東南東,14.9,97.1,0,1,2,8
122,2023-10-09T02:01:00,1.1,東南東,2.2,東南東,14.9,97.2,0,1,2,8
123,2023-10-09T02:02:00,1,東南東,2,東,14.9,97.1,0.5,1.5,2.5,8.5
124,2023-10-09T02:03:00,1,南東,1.8,南南東,14.9,97,0.5,1.5,2.5,8.5
125,2023-10-09T02:04:00,1.1,南東,2.1,南東,14.8,96.9,0.5,1.5,2.5,8.5
126,2023-10-09T02:05:00,1.1,南東,2.1,南東,14.7,96.7,0.5,1,2.5,8.5
127,2023-10-09T02:06:00,1.1,南東,2.1,南東,14.8,96.8,0.5,1,2.5,8.5
128,2023-10-09T02:07:00,1,南東,2.1,南東,15,97.3,0.5,1,2.5,8.5
129,2023-10-09T02:08:00,1.1,南東,2.1,南東,14.9,96.9,0.5,1,2.5,8.5
130,2023-10-09T02:09:00,1.1,南東,2.1,南東,14.8,96.9,0.5,1,2.5,8.5
131,2023-10-09T02:10:00,1.2,東南東,2.1,南東,14.8,96.9,0.5,1,2.5,8.5
132,2023-10-09T02:11:00,1.3,東南東,2.1,南東,14.8,96.9,0.5,1,2.5,8.5
133,2023-10-09T02:12:00,1.4,東南東,2.1,南東,14.8,96.9,0,1,2.5,8.5
134,2023-10-09T02:13:00,1.4,東南東,2.1,南東,14.7,96.8,0,1,2.5,8.5
135,2023-10-09T02:14:00,1.4,東南東,2.2,南東,14.7,96.8,0,1,2.5,8.5
136,2023-10-09T02:15:00,1.4,東南東,2.2,南東,14.8,97,0,1,2.5,8.5
137,2023-10-09T02:16:00,1.4,東南東,2.2,南東,14.8,96.9,0,1,2.5,8.5
138,2023-10-09T02:17:00,1.5,東南東,2.2,南東,14.9,97,0,1,2.5,8.5
139,2023-10-09T02:18:00,1.5,南東,2.2,南東,14.9,97,0,1,2.5,8.5
140,2023-10-09T02:19:00,1.5,南東,2.2,南東,14.9,97,0,1,2.5,8.5
141,2023-10-09T02:20:00,1.4,南東,2.2,南東,14.9,97.1,0,1,2.5,8.5
142,2023-10-09T02:21:00,1.3,南東,2.2,南東,14.9,97.1,0,1,2.5,8.5
143,2023-10-09T02:22:00,1.2,南東,2.2,南東,14.9,97,0.5,1.5,3,9
144,2023-10-09T02:23:00,1.2,南東,2.2,南東,14.9,96.8,0.5,1.5,3,9
145,2023-10-09T02:24:00,1.1,南東,2,南南東,14.8,96.7,0.5,1.5,3,9
146,2023-10-09T02:25:00,0.9,南南東,2,南南東,14.8,96.7,0.5,1.5,3,9
147,2023-10-09T02:26:00,0.9,南東,2,南南東,14.8,96.7,0.5,1.5,3,9
148,2023-10-09T02:27:00,0.9,南東,2,南南東,14.9,97,0.5,1.5,3,9
149,2023-10-09T02:28:00,0.9,南東,2,南南東,14.8,96.8,0.5,1.5,3,9
150,2023-10-09T02:29:00,0.9,南東,2,南南東,14.8,96.7,0.5,1.5,3,9
151,2023-10-09T02:30:00,1,南東,2,南南東,14.8,96.7,0.5,1.5,3,9
152,2023-10-09T02:31:00,1,南東,2,南南東,14.8,96.9,0.5,1,3,9
153,2023-10-09T02:32:00,1,南東,1.8,南南東,14.8,96.7,0,1,3,9
154,2023-10-09T02:33:00,1,南東,1.8,南南東,14.8,96.8,0,1,3,9
155,2023-10-09T02:34:00,1,南東,1.8,南南東,14.7,96.8,0,1,3,9
156,2023-10-09T02:35:00,1.1,南東,1.8,南南東,14.7,96.8,0.5,1.5,3.5,9.5
157,2023-10-09T02:36:00,1.2,南東,1.8,南南東,14.7,96.7,0.5,1.5,3.5,9.5
158,2023-10-09T02:37:00,1.2,南東,2,東南東,14.7,96.8,0.5,1.5,3.5,9.5
159,2023-10-09T02:38:00,1.2,東南東,2.2,東南東,14.7,96.8,0.5,1.5,3.5,9.5
160,2023-10-09T02:39:00,1.3,東南東,2.2,東南東,14.8,96.9,0.5,1.5,3.5,9.5
161,2023-10-09T02:40:00,1.3,東南東,2.2,東南東,14.8,96.9,0.5,1.5,3.5,9.5
162,2023-10-09T02:41:00,1.4,東南東,2.2,東南東,14.8,96.8,0.5,1.5,3.5,9.5
163,2023-10-09T02:42:00,1.4,東南東,2.2,東南東,14.7,96.7,0.5,1.5,3.5,9.5
164,2023-10-09T02:43:00,1.5,東南東,2.2,東南東,14.7,96.7,0.5,1.5,3.5,9.5
165,2023-10-09T02:44:00,1.6,東南東,2.3,東南東,14.7,96.7,0.5,1.5,3.5,9.5
166,2023-10-09T02:45:00,1.6,東南東,2.3,東南東,14.7,96.7,0,1.5,3.5,9.5
167,2023-10-09T02:46:00,1.6,東南東,2.3,東南東,14.7,96.7,0,1.5,3.5,9.5
168,2023-10-09T02:47:00,1.6,東南東,2.3,東南東,14.7,96.8,0,1.5,3.5,9.5
169,2023-10-09T02:48:00,1.6,東南東,2.3,東南東,14.7,96.8,0,1.5,3.5,9.5
170,2023-10-09T02:49:00,1.5,東南東,2.3,東南東,14.7,96.8,0,1.5,3.5,9.5
171,2023-10-09T02:50:00,1.4,東南東,2.3,東南東,14.8,96.9,0,1.5,3.5,9.5
172,2023-10-09T02:51:00,1.4,東南東,2.3,東南東,14.8,96.9,0.5,2,4,10
173,2023-10-09T02:52:00,1.2,東南東,2.3,東南東,14.8,96.9,0.5,2,4,10
174,2023-10-09T02:53:00,1.1,東南東,2.3,東南東,14.8,96.9,1,2.5,4.5,10.5
175,2023-10-09T02:54:00,1,東南東,1.9,東南東,14.8,96.9,1,2.5,4.5,10.5
176,2023-10-09T02:55:00,0.9,東南東,1.7,東,14.8,96.8,1,2.5,4.5,10.5
177,2023-10-09T02:56:00,0.8,東南東,1.7,東,14.8,96.8,1,2.5,4.5,10.5
178,2023-10-09T02:57:00,0.7,東南東,1.6,東南東,14.8,96.9,1,2.5,4.5,10.5
179,2023-10-09T02:58:00,0.7,東南東,1.6,東南東,14.8,96.7,1,2.5,4.5,10.5
180,2023-10-09T02:59:00,0.6,東南東,1.5,南東,14.8,96.7,1,2.5,4.5,10.5
181,2023-10-09T03:00:00,0.7,東南東,1.7,東北東,14.7,96.8,1,2.5,4.5,10.5
182,2023-10-09T03:01:00,0.7,東,1.7,東北東,14.7,96.7,0.5,2.5,4.5,10.5
183,2023-10-09T03:02:00,0.8,東,1.8,東南東,14.7,96.7,0.5,2,4.5,10.5
184,2023-10-09T03:03:00,0.9,東,1.8,東南東,14.7,96.8,0,2,4.5,10.5
185,2023-10-09T03:04:00,1,東,1.8,東南東,14.7,96.8,0,2,4.5,10.5
186,2023-10-09T03:05:00,1,東,1.8,東南東,14.7,96.8,0,2,4.5,10.5
187,2023-10-09T03:06:00,1.1,東,1.8,東南東,14.7,96.8,0,2,4.5,10.5
188,2023-10-09T03:07:00,1.1,東,1.8,東南東,14.7,96.8,0,2,4.5,10.5
189,2023-10-09T03:08:00,1.2,東,2.2,東北東,14.7,96.8,0,2,4.5,10.5
190,2023-10-09T03:09:00,1.3,東,2.4,東,14.7,96.7,0,2,4.5,10.5
191,2023-10-09T03:10:00,1.2,東,2.4,東,14.7,96.9,0,2,4.5,10.5
192,2023-10-09T03:11:00,1.2,東,2.4,東,14.8,96.9,0,2,4.5,10.5
193,2023-10-09T03:12:00,1.3,東,2.4,東,14.8,96.9,0,2,4.5,10.5
194,2023-10-09T03:13:00,1.3,東,2.4,東,14.8,96.8,0,2,4.5,10.5
195,2023-10-09T03:14:00,1.3,東南東,2.4,東,14.8,96.9,0,2,4.5,10.5
196,2023-10-09T03:15:00,1.3,東南東,2.4,東,14.8,96.8,0,2,4.5,10.5
197,2023-10-09T03:16:00,1.3,東南東,2.4,東,14.7,96.7,0,2,4.5,10.5
198,2023-10-09T03:17:00,1.3,東南東,2.4,東,14.7,96.8,0,2,4.5,10.5
199,2023-10-09T03:18:00,1.3,東南東,2.4,東,14.8,96.8,0,2,4.5,10.5
200,2023-10-09T03:19:00,1.3,東南東,2.3,南東,14.8,96.8,0,2,4.5,10.5
201,2023-10-09T03:20:00,1.3,東南東,3,南東,14.8,96.8,0,2,4.5,10.5
202,2023-10-09T03:21:00,1.4,東南東,3,南東,14.7,96.8,0,2,4.5,10.5
203,2023-10-09T03:22:00,1.5,東南東,3,南東,14.7,96.7,0,1.5,4.5,10.5
204,2023-10-09T03:23:00,1.5,東南東,3,南東,14.8,96.8,0,1.5,4.5,10.5
205,2023-10-09T03:24:00,1.6,東南東,3.1,東南東,14.8,96.9,0.5,2,5,11
206,2023-10-09T03:25:00,1.6,東南東,3.1,東南東,14.7,96.7,0.5,2,5,11
207,2023-10-09T03:26:00,1.7,東南東,3.1,東南東,14.8,96.8,0.5,2,5,11
208,2023-10-09T03:27:00,1.7,東南東,3.1,東南東,14.7,96.8,0.5,2,5,11
209,2023-10-09T03:28:00,1.7,東南東,3.1,東南東,14.7,96.8,0.5,2,5,11
210,2023-10-09T03:29:00,1.8,東南東,3.1,東南東,14.7,96.8,0.5,2,5,11
211,2023-10-09T03:30:00,1.8,東南東,3.1,東南東,14.7,96.6,0.5,2,5,11
212,2023-10-09T03:31:00,1.7,東南東,3.1,東南東,14.8,96.8,0.5,2,5,11
213,2023-10-09T03:32:00,1.6,東南東,3.1,東南東,14.8,96.8,0.5,2,5,11
214,2023-10-09T03:33:00,1.5,東南東,3.1,東南東,14.8,96.8,0.5,2,5,11
215,2023-10-09T03:34:00,1.4,東南東,3.1,東南東,14.8,96.8,0,2,5,11
216,2023-10-09T03:35:00,1.4,東南東,3.1,東南東,14.8,96.7,0,1.5,5,11
217,2023-10-09T03:36:00,1.3,東南東,3.1,東南東,14.8,96.7,0,1.5,5,11
218,2023-10-09T03:37:00,1.3,東南東,3.1,東南東,14.8,96.7,0,1.5,5,11
219,2023-10-09T03:38:00,1.3,東,3.1,東南東,14.8,96.7,0,1.5,5,11
220,2023-10-09T03:39:00,1.2,東,2.5,東,14.7,96.6,0,1.5,5,11
221,2023-10-09T03:40:00,1.3,東,2.5,東,14.7,96.6,0,1.5,5,11
222,2023-10-09T03:41:00,1.4,東,2.9,北東,14.7,96.7,0,1.5,5,11
223,2023-10-09T03:42:00,1.4,東,2.9,北東,14.7,96.6,0,1.5,5,11
224,2023-10-09T03:43:00,1.5,東,2.9,北東,14.7,96.7,0,1.5,5,11
225,2023-10-09T03:44:00,1.6,東,2.9,北東,14.8,96.7,0,1.5,5,11
226,2023-10-09T03:45:00,1.6,東,2.9,北東,14.7,96.6,0.5,2,5.5,11.5
227,2023-10-09T03:46:00,1.7,東,2.9,北東,14.7,96.7,0.5,2,5.5,11.5
228,2023-10-09T03:47:00,1.7,東,2.9,北東,14.8,96.7,0.5,2,5.5,11.5
229,2023-10-09T03:48:00,1.7,東,2.9,北東,14.8,96.7,0.5,2,5.5,11.5
230,2023-10-09T03:49:00,1.6,東,2.9,北東,14.8,96.7,0.5,2,5.5,11.5
231,2023-10-09T03:50:00,1.6,東,2.9,北東,14.8,96.7,0.5,2,5.5,11.5
232,2023-10-09T03:51:00,1.5,東,2.8,東北東,14.8,96.6,0.5,1.5,5.5,11.5
233,2023-10-09T03:52:00,1.5,東,2.8,東北東,14.7,96.5,0.5,1.5,5.5,11.5
234,2023-10-09T03:53:00,1.3,東,2.8,東北東,14.7,96.5,0.5,1,5.5,11.5
235,2023-10-09T03:54:00,1.3,東,2.6,東北東,14.7,96.6,0.5,1,5.5,11.5
236,2023-10-09T03:55:00,1.2,東,2.4,東南東,14.7,96.5,0,1,5.5,11.5
237,2023-10-09T03:56:00,1.2,東,2.3,東,14.7,96.6,0,1,5.5,11.5
238,2023-10-09T03:57:00,1.4,東,2.7,東南東,14.8,96.6,0,1,5.5,11.5
239,2023-10-09T03:58:00,1.5,東,2.7,東南東,14.8,96.7,0,1,5.5,11.5
240,2023-10-09T03:59:00,1.6,東,2.9,東,14.8,96.7,0,1,5.5,11.5
241,2023-10-09T04:00:00,1.6,東,2.9,東,14.8,96.7,0,1,5.5,11.5
242,2023-10-09T04:01:00,1.7,東,3.2,東北東,14.7,96.6,0,1,5.5,11.5
243,2023-10-09T04:02:00,1.8,東,3.2,東北東,14.7,96.5,0,1,5.5,11.5
244,2023-10-09T04:03:00,1.9,東,3.2,東北東,14.7,96.6,0,1,5.5,11.5
245,2023-10-09T04:04:00,1.9,東,3.2,東北東,14.7,96.6,0,1,5.5,11.5
246,2023-10-09T04:05:00,1.9,東,3.2,東北東,14.8,96.6,0,1,5.5,11.5
247,2023-10-09T04:06:00,1.8,東南東,3.2,東北東,14.8,96.7,0.5,1.5,6,12
248,2023-10-09T04:07:00,1.7,東南東,3.2,東北東,14.7,96.6,0.5,1.5,6,12
249,2023-10-09T04:08:00,1.6,東,3.2,東北東,14.7,96.6,0.5,1.5,6,12
250,2023-10-09T04:09:00,1.5,東,3.2,東北東,14.7,96.6,0.5,1.5,6,12
251,2023-10-09T04:10:00,1.4,東,3.2,東北東,14.7,96.5,0.5,1.5,6,12
252,2023-10-09T04:11:00,1.4,東,2.8,東南東,14.7,96.5,0.5,1.5,6,12
253,2023-10-09T04:12:00,1.3,東,2.7,東南東,14.7,96.5,0.5,1.5,6,12
254,2023-10-09T04:13:00,1.3,東,2.7,東南東,14.7,96.6,0.5,1.5,6,12
255,2023-10-09T04:14:00,1.3,東,2.5,東,14.7,96.6,0.5,1.5,6,12
256,2023-10-09T04:15:00,1.3,東,2.5,東,14.6,96.5,0.5,1.5,6,12
257,2023-10-09T04:16:00,1.4,東,2.5,東,14.6,96.5,0,1.5,6,12
258,2023-10-09T04:17:00,1.4,東,2.5,東,14.6,96.6,0,1.5,6,12
259,2023-10-09T04:18:00,1.5,東,2.5,東,14.6,96.5,0,1.5,6,12
260,2023-10-09T04:19:00,1.5,東,2.5,東,14.6,96.6,0.5,2,6.5,12.5
261,2023-10-09T04:20:00,1.5,東,2.5,東,14.7,96.6,0.5,2,6.5,12.5
262,2023-10-09T04:21:00,1.5,東,2.5,東北東,14.6,96.6,0.5,2,6.5,12.5
263,2023-10-09T04:22:00,1.4,東,2.5,東北東,14.7,96.6,0.5,2,6.5,12.5
264,2023-10-09T04:23:00,1.3,東南東,2.5,東北東,14.6,96.6,0.5,2,6.5,12.5
265,2023-10-09T04:24:00,1.2,東南東,2.5,東北東,14.7,96.7,0.5,1.5,6.5,12.5
266,2023-10-09T04:25:00,1.2,東南東,2.5,東北東,14.7,96.8,0.5,1.5,6.5,12.5
267,2023-10-09T04:26:00,1.2,東南東,2.5,東北東,14.7,96.6,0.5,1.5,6.5,12.5
268,2023-10-09T04:27:00,1.1,東南東,2.3,南南東,14.7,96.6,0.5,1.5,6.5,12.5
269,2023-10-09T04:28:00,1.1,南東,2.3,南南東,14.7,96.6,0.5,1.5,6.5,12.5
270,2023-10-09T04:29:00,1.1,南東,2.3,南南東,14.7,96.6,0,1.5,6.5,12.5
271,2023-10-09T04:30:00,1.1,南東,2.5,南東,14.7,96.7,0,1.5,6.5,12.5
272,2023-10-09T04:31:00,1.2,南東,2.5,南東,14.7,96.6,0,1.5,6.5,12.5
273,2023-10-09T04:32:00,1.2,南東,2.5,南東,14.7,96.6,0,1.5,6.5,12.5
274,2023-10-09T04:33:00,1.3,南東,2.5,南東,14.7,96.6,0,1.5,6.5,12.5
275,2023-10-09T04:34:00,1.3,南東,2.5,南東,14.7,96.6,0,1.5,6.5,12.5
276,2023-10-09T04:35:00,1.4,南東,2.5,南東,14.8,96.6,0,1.5,6.5,12.5
277,2023-10-09T04:36:00,1.4,南東,2.5,南東,14.8,96.8,0,1.5,6.5,12.5
278,2023-10-09T04:37:00,1.4,南東,2.5,南東,14.8,96.7,0,1.5,6.5,12.5
279,2023-10-09T04:38:00,1.4,南東,2.5,南東,14.7,96.5,0,1.5,6.5,12.5
280,2023-10-09T04:39:00,1.5,東南東,2.5,南東,14.7,96.5,0.5,2,7,13
281,2023-10-09T04:40:00,1.4,東南東,2.3,南東,14.7,96.5,0.5,2,7,13
282,2023-10-09T04:41:00,1.5,東南東,2.6,東,14.7,96.5,0.5,2,7,13
283,2023-10-09T04:42:00,1.5,東南東,2.6,東,14.7,96.5,0.5,2,7,13
284,2023-10-09T04:43:00,1.5,東南東,2.6,東,14.7,96.5,0.5,2,7,13
285,2023-10-09T04:44:00,1.5,東南東,2.6,東,14.7,96.6,0.5,2,7,13
286,2023-10-09T04:45:00,1.4,東南東,2.6,東,14.7,96.6,0.5,1.5,7,13
287,2023-10-09T04:46:00,1.4,東南東,2.6,東,14.7,96.6,0.5,1.5,7,13
288,2023-10-09T04:47:00,1.4,東南東,2.6,東,14.7,96.5,0.5,1.5,7,13
289,2023-10-09T04:48:00,1.4,東南東,2.6,東,14.7,96.5,0.5,1.5,7,13
290,2023-10-09T04:49:00,1.3,東南東,2.6,東,14.7,96.6,0,1.5,7,13
291,2023-10-09T04:50:00,1.3,東,2.6,東,14.6,96.5,0,1.5,7,13
292,2023-10-09T04:51:00,1.2,東,2.2,南東,14.6,96.5,0,1.5,7,13
293,2023-10-09T04:52:00,1.1,東,2.1,東南東,14.7,96.6,0,1.5,7,13
294,2023-10-09T04:53:00,1.1,東,2,東南東,14.7,96.6,0,1.5,7,13
295,2023-10-09T04:54:00,1.1,東,2,東南東,14.7,96.6,0,1.5,7,13
296,2023-10-09T04:55:00,1.1,東,2,東南東,14.7,96.6,0,1.5,7,13
297,2023-10-09T04:56:00,1.1,東,1.8,東南東,14.7,96.5,0,1.5,7,13
298,2023-10-09T04:57:00,1.2,東,2.3,東南東,14.7,96.6,0,1.5,7,13
299,2023-10-09T04:58:00,1.3,東,2.3,東南東,14.6,96.5,0,1.5,7,13
300,2023-10-09T04:59:00,1.3,東南東,2.3,東南東,14.7,96.5,0,1.5,7,13
301,2023-10-09T05:00:00,1.4,東南東,2.3,東南東,14.7,96.5,0,1.5,7,13
302,2023-10-09T05:01:00,1.4,東南東,2.3,東南東,14.7,96.6,0,1.5,7,13
303,2023-10-09T05:02:00,1.3,東南東,2.3,東南東,14.8,96.7,0,1.5,7,13
304,2023-10-09T05:03:00,1.3,東南東,2.3,東南東,14.8,96.8,0,1.5,7,13
305,2023-10-09T05:04:00,1.2,東南東,2.3,東南東,14.9,96.7,0,1.5,7,13
306,2023-10-09T05:05:00,1.1,南東,2.3,東南東,14.8,96.6,0,1.5,7,13
307,2023-10-09T05:06:00,1,東南東,2.3,東南東,14.8,96.6,0,1,7,13
308,2023-10-09T05:07:00,0.9,東南東,2.3,東南東,14.7,96.4,0,1,7,13
309,2023-10-09T05:08:00,0.8,東南東,2.1,東南東,14.7,96.4,0,1,7,13
310,2023-10-09T05:09:00,0.7,東南東,1.9,南南東,14.7,96.4,0,1,7,13
311,2023-10-09T05:10:00,0.7,東南東,1.9,南南東,14.7,96.5,0,1,7,13
312,2023-10-09T05:11:00,0.7,東,1.9,南南東,14.7,96.4,0,1,7,13
313,2023-10-09T05:12:00,0.8,東,1.8,東,14.7,96.5,0.5,1.5,7.5,13.5
314,2023-10-09T05:13:00,0.8,東,1.8,東,14.7,96.5,0.5,1.5,7.5,13.5
315,2023-10-09T05:14:00,0.9,東,1.8,東,14.6,96.5,0.5,1.5,7.5,13.5
316,2023-10-09T05:15:00,1,東,1.8,東,14.7,96.5,0.5,1.5,7.5,13.5
317,2023-10-09T05:16:00,1,東,1.8,東,14.6,96.5,0.5,1.5,7.5,13.5
318,2023-10-09T05:17:00,1,東,1.8,東,14.7,96.6,0.5,1.5,7.5,13.5
319,2023-10-09T05:18:00,1,東,1.8,東,14.8,96.7,1,2,8,14
320,2023-10-09T05:19:00,0.9,東,1.7,東北東,14.8,96.7,1,1.5,8,14
321,2023-10-09T05:20:00,0.8,東,1.6,東南東,14.8,96.6,1,1.5,8,14
322,2023-10-09T05:21:00,0.7,東,1.6,東南東,14.7,96.5,1,1.5,8,14
323,2023-10-09T05:22:00,0.6,東,1.6,東南東,14.7,96.5,0.5,1.5,8,14
324,2023-10-09T05:23:00,0.6,東,1.4,東,14.7,96.4,0.5,1.5,8,14
325,2023-10-09T05:24:00,0.6,東,1.4,東,14.7,96.4,0.5,1.5,8,14
326,2023-10-09T05:25:00,0.5,東,1.3,東,14.6,96.5,0.5,1.5,8,14
327,2023-10-09T05:26:00,0.5,東,1.2,東北東,14.6,96.4,0.5,1.5,8,14
328,2023-10-09T05:27:00,0.5,東,1.2,東北東,14.6,96.5,0.5,1.5,8,14
329,2023-10-09T05:28:00,0.5,東北東,1.2,東北東,14.6,96.5,0.5,2,8.5,14.5
330,2023-10-09T05:29:00,0.6,東北東,1.3,東北東,14.6,96.5,0.5,2,8.5,14.5
331,2023-10-09T05:30:00,0.7,東北東,1.8,東北東,14.6,96.6,0.5,2,8.5,14.5
332,2023-10-09T05:31:00,0.9,東北東,2.1,北東,14.6,96.5,0.5,2,8.5,14.5
333,2023-10-09T05:32:00,1,東北東,2.2,北東,14.6,96.5,0.5,2,8.5,14.5
334,2023-10-09T05:33:00,1.2,北東,2.3,北東,14.6,96.5,0.5,2,8.5,14.5
335,2023-10-09T05:34:00,1.3,北東,2.5,北東,14.6,96.6,0.5,2,8.5,14.5
336,2023-10-09T05:35:00,1.4,北東,2.6,北北東,14.6,96.6,0.5,2,8.5,14.5
337,2023-10-09T05:36:00,1.5,北東,2.6,北北東,14.6,96.6,0.5,2,8.5,14.5
338,2023-10-09T05:37:00,1.6,北東,2.6,北北東,14.6,96.6,0.5,2,8.5,14.5
339,2023-10-09T05:38:00,1.6,北東,2.6,北北東,14.7,96.6,0,2,8.5,14.5
340,2023-10-09T05:39:00,1.6,北東,2.6,北北東,14.6,96.6,0,1.5,8.5,14.5
341,2023-10-09T05:40:00,1.6,北東,2.6,北北東,14.7,96.7,0,1.5,8.5,14.5
342,2023-10-09T05:41:00,1.4,北東,2.6,北北東,14.6,96.6,0,1.5,8.5,14.5
343,2023-10-09T05:42:00,1.2,北東,2.6,北北東,14.7,96.7,0,1.5,8.5,14.5
344,2023-10-09T05:43:00,1.1,北東,2.6,北北東,14.6,96.6,0,1.5,8.5,14.5
345,2023-10-09T05:44:00,0.9,北東,2.6,北北東,14.7,96.6,0,1.5,8.5,14.5
346,2023-10-09T05:45:00,0.7,北東,2.6,北北東,14.7,96.7,0,1.5,8.5,14.5
347,2023-10-09T05:46:00,0.5,北東,1.5,北東,14.8,96.8,0,1.5,8.5,14.5
348,2023-10-09T05:47:00,0.4,北東,1.4,北東,14.7,96.7,0,1.5,8.5,14.5
349,2023-10-09T05:48:00,0.3,北東,1.2,東北東,14.7,96.6,0,1.5,8.5,14.5
350,2023-10-09T05:49:00,0.2,静穏,0.9,東北東,14.7,96.6,0,1.5,8.5,14.5
351,2023-10-09T05:50:00,0.1,静穏,0.6,東北東,14.8,96.8,0,1.5,8.5,14.5
352,2023-10-09T05:51:00,0.1,静穏,0.5,北東,14.9,96.9,0,1.5,8.5,14.5
353,2023-10-09T05:52:00,0.1,静穏,0.7,北北東,14.8,96.7,0,1.5,8.5,14.5
354,2023-10-09T05:53:00,0.1,静穏,0.7,北北東,14.7,96.6,0,1.5,8.5,14.5
355,2023-10-09T05:54:00,0.1,静穏,0.7,北北東,14.7,96.6,0,1.5,8.5,14.5
356,2023-10-09T05:55:00,0.2,静穏,0.7,北北東,14.7,96.6,0,1.5,8.5,14.5
357,2023-10-09T05:56:00,0.2,静穏,0.7,北北東,14.7,96.6,0,1.5,8.5,14.5
358,2023-10-09T05:57:00,0.2,静穏,0.7,北北東,14.7,96.7,0,1.5,8.5,14.5
359,2023-10-09T05:58:00,0.2,静穏,0.7,北北東,14.7,96.8,0,1.5,8.5,14.5
360,2023-10-09T05:59:00,0.2,静穏,0.8,北北東,14.8,96.8,0,1.5,8.5,14.5
361,2023-10-09T06:00:00,0.3,北東,1,北東,14.7,96.7,0,1.5,8.5,14.5
362,2023-10-09T06:01:00,0.3,北東,1.1,北東,14.9,96.8,0,1.5,8.5,14.5
363,2023-10-09T06:02:00,0.4,東北東,1.6,東北東,14.8,96.8,0,1.5,8.5,14.5
364,2023-10-09T06:03:00,0.5,東北東,1.6,東北東,14.7,96.6,0,1.5,8.5,14.5
365,2023-10-09T06:04:00,0.6,東北東,1.7,東北東,14.7,96.6,0,1.5,8.5,14.5
366,2023-10-09T06:05:00,0.7,東北東,2,北東,14.7,96.7,0,1.5,8.5,14.5
367,2023-10-09T06:06:00,0.8,東北東,2,北東,14.7,96.7,0,1.5,8.5,14.5
368,2023-10-09T06:07:00,0.9,東北東,2,北東,14.7,96.8,0,1.5,8.5,14.5
369,2023-10-09T06:08:00,1.1,北東,2,北東,14.7,96.7,0,1.5,8.5,14.5
370,2023-10-09T06:09:00,1.2,北東,2.1,北東,14.7,96.7,0,1.5,8.5,14.5
371,2023-10-09T06:10:00,1.3,北東,2.3,東北東,14.7,96.7,0,1.5,8.5,14.5
372,2023-10-09T06:11:00,1.5,北東,2.3,東北東,14.7,96.7,0,1.5,8.5,14.5
373,2023-10-09T06:12:00,1.5,北東,2.3,東北東,14.7,96.7,0,1,8.5,14.5
374,2023-10-09T06:13:00,1.5,北東,2.3,東北東,14.7,96.7,0,1,8.5,14.5
375,2023-10-09T06:14:00,1.5,北東,2.3,東北東,14.7,96.8,0,1,8.5,14.5
376,2023-10-09T06:15:00,1.5,北東,2.3,東北東,14.7,96.8,0,1,8.5,14.5
377,2023-10-09T06:16:00,1.4,北東,2.3,東北東,14.7,96.7,0,1,8.5,14.5
378,2023-10-09T06:17:00,1.5,北東,2.3,東北東,14.7,96.8,0,1,8.5,14.5
379,2023-10-09T06:18:00,1.4,北東,2.3,東北東,14.7,96.8,0,0.5,8.5,14.5
380,2023-10-09T06:19:00,1.4,北東,2.3,東北東,14.7,96.8,0,0.5,8.5,14.5
381,2023-10-09T06:20:00,1.3,北東,2.2,北東,14.7,96.8,0.5,1,9,15
382,2023-10-09T06:21:00,1.3,北東,1.8,北東,14.7,96.8,0.5,1,9,15
383,2023-10-09T06:22:00,1.2,北東,1.8,北東,14.7,96.8,0.5,1,9,15
384,2023-10-09T06:23:00,1.2,北東,1.8,北東,14.7,96.8,0.5,1,9,15
385,2023-10-09T06:24:00,1.2,北東,1.8,北東,14.7,96.8,0.5,1,9,15
386,2023-10-09T06:25:00,1.2,北東,1.8,北東,14.7,96.8,0.5,1,9,15
387,2023-10-09T06:26:00,1.2,北東,1.8,北東,14.7,96.8,0.5,1,9,15
388,2023-10-09T06:27:00,1.2,北東,1.8,北東,14.7,96.8,0.5,1,9,15
389,2023-10-09T06:28:00,1.2,北東,1.9,北東,14.7,96.8,0.5,0.5,9,15
390,2023-10-09T06:29:00,1.2,北東,1.9,北東,14.7,96.8,0.5,0.5,9,15
391,2023-10-09T06:30:00,1.3,北東,1.9,北東,14.7,96.8,0,0.5,9,15
392,2023-10-09T06:31:00,1.3,北東,1.9,北東,14.7,96.8,0,0.5,9,15
393,2023-10-09T06:32:00,1.4,北東,1.9,北東,14.7,96.8,0,0.5,9,15
394,2023-10-09T06:33:00,1.4,北東,2.3,東北東,14.7,96.8,0,0.5,9,15
395,2023-10-09T06:34:00,1.4,北東,2.3,東北東,14.8,96.9,0,0.5,9,15
396,2023-10-09T06:35:00,1.4,北東,2.3,東北東,14.8,96.9,0,0.5,9,15
397,2023-10-09T06:36:00,1.4,北東,2.4,東北東,14.8,96.8,0,0.5,9,15
398,2023-10-09T06:37:00,1.4,東北東,2.4,東北東,14.7,96.8,0,0.5,9,15